Current Version              Previous Version:    01  02  03  04  05  06  07  08  09  10  11  12  13  14  15  16  17  18  19  20  21  22  23  24  25  26  27  28  29  30  
   31  32  33  34  35  36  37  38  39  40  41  42  43  44  45  46  47  48  49  50  51  52  53  54  55  56  57  58  59  60  

[Printable]
653
ASUS44 KLUB 251410
RWRTX
WEST TEXAS WEATHER ROUNDUP
NATIONAL WEATHER SERVICE LUBBOCK TX
800 AM CST SUN JAN 25 2015

NOTE: "FAIR" INDICATES FEW OR NO CLOUDS BELOW 12,000 FEET WITH NO
SIGNIFICANT WEATHER AND/OR OBSTRUCTIONS TO VISIBILITY.

TXZ004-006>008-010-012-014-016-OKZ002-251500-
TEXAS PANHANDLE/OKLAHOMA PANHANDLE

CITY           SKY/WX    TMP DP  RH WIND       PRES   REMARKS
AMARILLO       CLEAR     36  25  64 NW12      30.18R WCI  28
BORGER         CLEAR     39  26  59 W9        30.18R WCI  33
CANADIAN       CLEAR     42  28  58 W13G18    30.12R
DALHART        CLEAR     33  24  69 NW14      30.20R WCI  23
DUMAS          CLEAR     32  24  72 NW13      30.19R WCI  22
GUYMON         CLEAR     37  26  64 W9        30.15R WCI  30
HEREFORD       CLEAR     30  26  84 N9        30.20R WCI  22
PAMPA          CLEAR     31  26  81 NW12      30.16R WCI  22
PERRYTON         N/A     37  27  65 NW14      30.12R WCI  29
$$

TXZ026-029-035-045-048-251500-
SOUTHERN PANHANDLE/SOUTH PLAINS/ROLLING PLAINS

CITY           SKY/WX    TMP DP  RH WIND       PRES   REMARKS
CHILDRESS      CLEAR     37  29  72 NW8       30.15R WCI  31
SEMINOLE       MOCLDY    38  29  71 N9        30.22R WCI  31
LUBBOCK        PTCLDY    32  28  85 NW7       30.17R WCI  26
PLAINVIEW      CLEAR     37  27  66 N13       30.16R WCI  29
SNYDER         MOCLDY   N/A N/A N/A N6        30.16R
$$

TXZ052-054-060>062-072-078-127-140-154-169-251500-
PERMIAN BASIN/CONCHO VALLEY/BIG COUNTRY/EDWARDS PLATEAU

CITY           SKY/WX    TMP DP  RH WIND       PRES   REMARKS
ABILENE        PTCLDY    39  31  72 NW9       30.13R WCI  33
BIG SPRING     PTCLDY    34  29  81 NW3       30.19R
BRADY          CLEAR     43  34  70 NW9       30.09R
BROWNWOOD      CLEAR     39  32  75 N6        30.09R WCI  35
JUNCTION       CLEAR     32  29  88 W5        30.11R WCI  27
MIDLAND        PTCLDY    36  29  75 N9        30.17R WCI  29
ODESSA         CLEAR     36  28  73 N7        30.18R WCI  30
SAN ANGELO     CLEAR     36  31  82 W7        30.13R WCI  30
SONORA         CLEAR     28  27  93 CALM      30.17R
SWEETWATER     PTCLDY    42  31  65 NW7       30.18R
WINK           CLEAR     31  23  72 N9        30.18R WCI  23
$$

TXZ055-058-074-075-080-082-251500-
FAR WEST/SOUTHWEST MOUNTAINS/TRANS PECOS

CITY           SKY/WX    TMP DP  RH WIND       PRES   REMARKS
ALPINE         PTCLDY    34  18  52 W7        30.25R WCI  28
DRYDEN           N/A     46  24  42 W12       30.15R
EL PASO        PTCLDY    31  25  78 N7        30.21R WCI  24
FORT STOCKTON  CLEAR     38  25  59 W10       30.19R WCI  31
MARFA          PTCLDY    27  19  74 E7        30.22R WCI  19
PECOS          CLEAR     32  26  77 W8        30.21R WCI  25
PRESIDIO       FAIR      39  32  77 N6        30.20S WCI  34
$$

TXZ014-016-019-021>030-083-251500
TEXAS TECH WEST TEXAS MESONET/TEXAS PANHANDLE/NORTHERN SOUTH PLAINS

CITY           SKY/WX    TMP DP  RH WIND       PRES   REMARKS
ABERNATHY 5ENE   N/A     33  29  83 NW9       30.18R WCI  25
AMARILLO 9NNE    N/A     34  26  73 W3        30.19R
AMARILLO 7SSE    N/A     34  25  68 NW9       30.20R WCI  27
AMHERST 1NE      N/A     32  27  81 NW9       30.20R WCI  24
BOOTLEG 11WNW    N/A     30  22  73 NW9       30.23R WCI  22
CANADIAN 6E      N/A     34  27  76 NW5       30.11R WCI  30
CAPROCK CYN SP   N/A     48  22  35 NW15      30.17R
CHILDRESS 2NNE   N/A     40  29  64 W13       30.13R WCI  33
CLARENDON 2WSW   N/A     38  26  62 NW10      30.16R WCI  30
CLAUDE 12SW      N/A     35  24  64 NW12      30.17R WCI  27
DIMMITT 2NE      N/A     31  25  78 NW10      30.19R WCI  22
FLOYDADA 2NNE    N/A     34  26  72 N10       30.15R WCI  26
FRIONA 2NE       N/A     28  23  83 NW5       30.21R WCI  23
GOODLETT 3W      N/A     40  29  66 W12       30.12R WCI  33
HART 3N          N/A     34  25  69 N12       30.18R WCI  26
HEREFORD 2NW     N/A     31  24  76 NW3       30.19R
MCLEAN 1E        N/A     36  27  69 NW15      30.12R WCI  27
MEMPHIS 1NE      N/A     43  28  53 NW9       30.16R
MULESHOE 2SSW    N/A     32  27  81 NW6       30.21R WCI  26
OLTON 6S         N/A     34  26  71 N10       30.18R WCI  26
PALO DURO SP     N/A     41  25  51 NW15      30.19R
PAMPA 2E         N/A     35  27  72 NW14      30.14R WCI  26
PLAINVIEW 1S     N/A     38  26  61 N8        30.17R WCI  32
SILVERTON 7ESE   N/A     35  26  67 N12       30.18R WCI  27
TULIA 2ENE       N/A     31  26  81 N8        30.18R WCI  24
TURKEY 2WSW      N/A     43  26  52 NW16      30.15R
UMBARGER 3NNE    N/A     29  22  76 NW9       30.20R WCI  20
$$

TXZ033>036-039>041-045>048-251500
TEXAS TECH WEST TEXAS MESONET/SOUTH PLAINS

CITY           SKY/WX    TMP DP  RH WIND       PRES   REMARKS
AIKEN 3WSW       N/A     32  27  82 N9        30.18R WCI  24
ANDREWS 2NE      N/A     35  28  75 NW8       30.20R WCI  29
ANTON 6SSW       N/A     31  28  88 NW8       30.19R WCI  24
BROWNFIELD 2S    N/A     33  28  82 NW10      30.20R WCI  25
DENVR CTY 7WNW   N/A     31  26  83 NW8       30.21R WCI  23
GAIL 2ESE        N/A     37  29  73 NW7       30.16R WCI  32
LAMESA 2SE       N/A     34  29  82 NW8       30.19R WCI  27
LEVELLAND 4S     N/A     30  26  84 NW10      30.20R WCI  21
LUBBOCK 3WNW     N/A     32  27  82 NW5       30.19R WCI  27
MORTON 1ENE      N/A     29  26  88 W6        30.21R WCI  23
ODONNELL 1N      N/A     32  28  84 NW8       30.18R WCI  25
PLAINS 3N        N/A     30  26  86 NW7       30.21R WCI  23
RALLS 1SE        N/A     35  28  75 NW9       30.17R WCI  28
REESE CENTER     N/A     33  28  80 NW9       30.19R WCI  26
SEAGRAVES 1SW    N/A     30  27  90 NW7       30.20R WCI  23
SEMINOLE 2NNE    N/A     34  28  79 NW8       30.21R WCI  27
SLATON 2NE       N/A     37  28  70 NW9       30.18R WCI  30
SNYDER 3E        N/A     39  31  73 N9        30.15R WCI  32
SUNDOWN 8SW      N/A     30  26  87 NW9       30.21R WCI  21
TAHOKA 3NNE      N/A     35  29  79 NW9       30.17R WCI  27
WOLFFORTH 6SSW   N/A     33  33  99 NW8       30.19R WCI  26
$$

TXZ031-032-036>038-042>044-251500-
TEXAS TECH WEST TEXAS MESONET/ROLLING PLAINS

CITY           SKY/WX    TMP DP  RH WIND       PRES   REMARKS
ASPERMONT 3NE    N/A     36  30  79 W5        30.14R WCI  32
FLUVANNA 3WNW    N/A     39  29  68 N10       30.15R WCI  32
GRAHAM 5SSW      N/A     36  29  74 NW17      30.16R WCI  26
GUTHRIE 10WSW    N/A     46  27  48 N14       30.12R
HASKELL 1NW      N/A     38  32  78 W9        30.12R WCI  32
JAYTON 1SSE      N/A     33  29  86 W5        30.14R WCI  29
KNOX CITY 3NW    N/A     44  31  58 NW9       30.12R
LK A HENRY 1NW   N/A     35  30  81 W7        30.16R WCI  29
NORTHFIELD 1S    N/A     42  29  61 NW8       30.15R
ODELL 4ENE       N/A     46  31  56 NW18      30.11R
PADUCAH 10SW     N/A     43  29  56 NW15      30.13R
POST 1NE         N/A     41  28  60 NW12      30.17R
RRING SPRGS 3N   N/A     44  26  48 N18       30.14R
SEYMOUR 3NW      N/A     44  32  62 NW16      30.09R
SPUR 1W          N/A     44  25  47 N9        30.13R
WEINERT 2NNE     N/A     40  31  71 W6        30.12R
WHITE RVR 6NE    N/A     41  26  55 NW17      30.13R
$$

TXZ052-054-060>062-072-078-127-140-154-169-251500-
TEXAS TECH WEST TEXAS MESONET/PERMIAN BASIN/
CONCHO VALLEY/BIG COUNTRY/EDWARDS PLATEAU

CITY           SKY/WX    TMP DP  RH WIND       PRES   REMARKS
COYANOSA 2N      N/A     33  27  78 W6        30.21R WCI  27
JUNCTION 1SSW    N/A     31  29  92 S3        30.13R
MERTZON 3NNE     N/A     41  30  65 NW7       30.15R
SAN ANGELO 7NW   N/A     37  30  74 W9        30.13R WCI  30
STRLNG CT 4WSW   N/A     37  29  74 W2        30.17R
ST LAWRNCE 5SW   N/A     33  29  87 W7        30.17R WCI  26
SWEETWATR 11SW   N/A     33  30  86 W2        30.16R
WALL 1E          N/A     35  31  85 SW8       30.13R WCI  28
$$

TXZ055-058-074-075-080-082-251500-
TEXAS TECH WEST TEXAS MESONET/FAR WEST/SOUTHWEST MOUNTAINS/TRANS PECOS

CITY           SKY/WX    TMP DP  RH WIND       PRES   REMARKS
PRSMN GAP BBNP   N/A     40  30  69 SW6       30.19R
GUADLPE MTN NP   N/A     42   9  26 CALM      30.23R
$$